Lenoir, NC

5:04 AM EST on December 07, 2016 (GMT -0500)
Morganton-Lenoir

Weather History for KMRN - January, 2013

Change the Weather History Date:

Sunday, January 20, 2013

  Actual Average (KHKY) Record (KHKY)
Temperature  
Mean Temperature 43 °F -  
Max Temperature 61 °F 46 °F 68 °F (1951)
Min Temperature 26 °F 26 °F -3 °F (1985)
Degree Days  
Heating Degree Days 22    
Moisture  
Dew Point 26 °F    
Average Humidity 63    
Maximum Humidity 97    
Minimum Humidity 22    
Precipitation  
Precipitation 0.00 in - - ()
Sea Level Pressure  
Sea Level Pressure 30.12 in    
Wind  
Wind Speed 3 mph (West)    
Max Wind Speed 16 mph    
Max Gust Speed 23 mph    
Visibility 10 miles    
Events      
Averages and records for this station are not official NWS values.
T = Trace of Precipitation, MM = Missing Value Source: NWS Daily Summary

Daily Weather History Graph

Daily Weather History Graph

Search for Another Location

Airport or City:

Trip Planner

Search our weather history database for the weather conditions in past years. The results will help you decide how hot, cold, wet, or windy it might be!

Date:

Astronomy

Jan. 20, 2013 Rise Set
Actual Time 7:34 AM EST 5:41 PM EST
Civil Twilight 7:06 AM EST 6:09 PM EST
Nautical Twilight 6:35 AM EST 6:40 PM EST
Astronomical Twilight 6:04 AM EST 7:10 PM EST
Moon 12:41 PM EST (1/20) 2:06 AM EST (1/20)
Length of Visible Light 11h 02m
Length of Day
10h 07m
Waxing Gibbous, 66% of the Moon is Illuminated
Jan 20
Waxing Gibbous
Jan 26
Full
Feb 3
Last Quarter
Feb 10
New
Feb 17
First Quarter

Hourly Weather History & Observations

Time (EST) Temp. Windchill Dew Point Humidity Pressure Visibility Wind Dir Wind Speed Gust Speed Precip Events Conditions
12:15 AM 28.6 °F - 27.3 °F 95% 30.18 in 10.0 mi Calm Calm - N/A   Clear
12:35 AM 29.1 °F - 27.7 °F 94% 30.17 in 10.0 mi Calm Calm - N/A   Clear
12:55 AM 30.9 °F - 28.4 °F 90% 30.16 in 10.0 mi Calm Calm - N/A   Clear
1:15 AM 29.7 °F - 27.7 °F 92% 30.16 in 10.0 mi Calm Calm - N/A   Clear
1:35 AM 27.5 °F - 26.4 °F 96% 30.15 in 10.0 mi Calm Calm - N/A   Clear
1:55 AM 28.4 °F - 27.0 °F 94% 30.15 in 10.0 mi Calm Calm - N/A   Clear
2:15 AM 28.8 °F - 27.5 °F 95% 30.15 in 10.0 mi Calm Calm - N/A   Clear
2:35 AM 28.0 °F - 26.8 °F 95% 30.15 in 10.0 mi Calm Calm - N/A   Clear
2:55 AM 28.0 °F 22.8 °F 27.1 °F 96% 30.14 in 10.0 mi NNW 4.6 mph - N/A   Clear
3:15 AM 28.4 °F - 27.3 °F 96% 30.14 in 10.0 mi Calm Calm - N/A   Clear
3:35 AM 28.6 °F - 27.7 °F 96% 30.14 in 7.0 mi Calm Calm - N/A   Clear
3:55 AM 28.2 °F - 27.0 °F 95% 30.13 in 7.0 mi Calm Calm - N/A   Clear
4:15 AM 28.2 °F - 27.3 °F 96% 30.13 in 7.0 mi Calm Calm - N/A   Clear
4:35 AM 28.4 °F - 27.5 °F 96% 30.13 in 7.0 mi Calm Calm - N/A   Clear
4:55 AM 27.1 °F - 26.4 °F 97% 30.12 in 7.0 mi Calm Calm - N/A   Clear
5:15 AM 27.9 °F - 27.1 °F 97% 30.12 in 7.0 mi Calm Calm - N/A   Clear
5:35 AM 26.4 °F - 25.5 °F 96% 30.12 in 7.0 mi Calm Calm - N/A   Clear
5:55 AM 26.8 °F - 26.1 °F 97% 30.12 in 10.0 mi Calm Calm - N/A   Clear
6:15 AM 26.8 °F 20.2 °F 25.9 °F 96% 30.12 in 10.0 mi NW 5.8 mph - N/A   Clear
6:35 AM 28.9 °F - 25.7 °F 88% 30.12 in 10.0 mi Calm Calm - N/A   Clear
7:15 AM 27.5 °F - 25.5 °F 92% 30.13 in 10.0 mi Calm Calm - N/A   Clear
7:35 AM 29.3 °F 23.2 °F 26.4 °F 89% 30.13 in 10.0 mi NW 5.8 mph - N/A   Clear
7:55 AM 28.2 °F 24.4 °F 25.7 °F 90% 30.13 in 10.0 mi NW 3.5 mph - N/A   Clear
8:15 AM 30.0 °F - 27.5 °F 90% 30.13 in 10.0 mi Calm Calm - N/A   Clear
8:35 AM 32.2 °F - 30.9 °F 95% 30.14 in 10.0 mi Calm Calm - N/A   Clear
8:55 AM 39.9 °F - 35.8 °F 85% 30.14 in 10.0 mi Calm Calm - N/A   Clear
9:35 AM 47.3 °F - 30.6 °F 52% 30.15 in 10.0 mi WSW 4.6 mph - N/A   Clear
9:55 AM 49.8 °F - 30.7 °F 48% 30.15 in 10.0 mi SW 5.8 mph - N/A   Clear
10:15 AM 51.3 °F - 30.7 °F 45% 30.15 in 10.0 mi SW 6.9 mph - N/A   Clear
10:35 AM 52.3 °F - 31.1 °F 44% 30.14 in 10.0 mi WSW 8.1 mph - N/A   Clear
10:55 AM 53.2 °F - 31.5 °F 43% 30.14 in 10.0 mi WSW 5.8 mph - N/A   Clear
11:15 AM 54.7 °F - 31.1 °F 41% 30.14 in 10.0 mi SW 5.8 mph - N/A   Clear
11:35 AM 55.8 °F - 30.7 °F 39% 30.13 in 10.0 mi WSW 10.4 mph - N/A   Clear
11:55 AM 57.0 °F - 29.1 °F 35% 30.12 in 10.0 mi WSW 8.1 mph 18.4 mph N/A   Clear
12:15 PM 58.3 °F - 30.2 °F 34% 30.10 in 10.0 mi SW 9.2 mph - N/A   Clear
12:35 PM 58.5 °F - 29.7 °F 33% 30.09 in 10.0 mi WSW 12.7 mph 17.3 mph N/A   Clear
1:15 PM 60.1 °F - 27.5 °F 29% 30.07 in 10.0 mi West 13.8 mph 20.7 mph N/A   Clear
1:35 PM 60.1 °F - 26.8 °F 28% 30.07 in 10.0 mi West 13.8 mph 23.0 mph N/A   Clear
1:55 PM 60.8 °F - 26.2 °F 27% 30.07 in 10.0 mi WSW 16.1 mph 20.7 mph N/A   Clear
2:15 PM 60.8 °F - 25.2 °F 26% 30.07 in 10.0 mi WNW 13.8 mph 20.7 mph N/A   Clear
2:35 PM 60.6 °F - 23.9 °F 25% 30.07 in 10.0 mi West 13.8 mph 21.9 mph N/A   Clear
2:55 PM 60.4 °F - 23.2 °F 24% 30.06 in 10.0 mi West 11.5 mph 21.9 mph N/A   Clear
3:15 PM 60.4 °F - 23.2 °F 24% 30.06 in 10.0 mi West 12.7 mph 19.6 mph N/A   Clear
3:35 PM 60.4 °F - 23.0 °F 24% 30.07 in 10.0 mi WNW 12.7 mph 19.6 mph N/A   Clear
4:15 PM 59.5 °F - 22.8 °F 24% 30.07 in 10.0 mi West 13.8 mph 19.6 mph N/A   Clear
4:35 PM 59.0 °F - 20.8 °F 23% 30.07 in 10.0 mi West 13.8 mph 19.6 mph N/A   Clear
4:55 PM 58.1 °F - 19.4 °F 22% 30.07 in 10.0 mi WNW 10.4 mph - N/A   Clear
5:15 PM 56.7 °F - 18.5 °F 23% 30.09 in 10.0 mi West 9.2 mph 17.3 mph N/A   Clear
5:35 PM 55.2 °F - 18.1 °F 23% 30.10 in 10.0 mi NW 6.9 mph - N/A   Clear
5:55 PM 53.6 °F - 18.7 °F 25% 30.11 in 10.0 mi NNW 4.6 mph - N/A   Clear
6:15 PM 52.5 °F - 19.6 °F 27% 30.12 in 10.0 mi Calm Calm - N/A   Clear
6:35 PM 50.4 °F - 20.7 °F 31% 30.13 in 10.0 mi WNW 3.5 mph - N/A   Clear
6:55 PM 50.2 °F - 20.7 °F 31% 30.13 in 10.0 mi West 4.6 mph - N/A   Clear
7:15 PM 49.3 °F - 21.0 °F 33% 30.13 in 10.0 mi WNW 3.5 mph - N/A   Clear
7:35 PM 49.3 °F - 21.7 °F 34% 30.13 in 10.0 mi Calm Calm - N/A   Clear
7:55 PM 38.7 °F - 28.6 °F 67% 30.14 in 10.0 mi Calm Calm - N/A   Clear
8:15 PM 39.6 °F - 25.0 °F 56% 30.14 in 10.0 mi Calm Calm - N/A   Clear
8:35 PM 47.5 °F - 24.1 °F 40% 30.14 in 10.0 mi WNW 3.5 mph - N/A   Clear
8:55 PM 38.8 °F - 26.2 °F 61% 30.14 in 10.0 mi Calm Calm - N/A   Clear
9:15 PM 36.0 °F - 26.8 °F 69% 30.14 in 10.0 mi Calm Calm - N/A   Clear
9:35 PM 33.8 °F - 26.8 °F 75% 30.13 in 10.0 mi Calm Calm - N/A   Clear
9:55 PM 33.6 °F 29.4 °F 27.3 °F 78% 30.13 in 10.0 mi NNW 4.6 mph - N/A   Clear
10:15 PM 35.2 °F - 26.8 °F 71% 30.13 in 10.0 mi Calm Calm - N/A   Clear
10:35 PM 32.9 °F - 27.3 °F 80% 30.13 in 10.0 mi Calm Calm - N/A   Clear
10:55 PM 31.1 °F - 26.8 °F 84% 30.12 in 10.0 mi Calm Calm - N/A   Clear
11:15 PM 30.4 °F 26.9 °F 26.8 °F 86% 30.12 in 10.0 mi SW 3.5 mph - N/A   Clear
11:35 PM 33.6 °F 30.6 °F 27.3 °F 78% 30.12 in 10.0 mi WSW 3.5 mph - N/A   Clear
11:55 PM 30.2 °F - 27.3 °F 89% 30.12 in 10.0 mi Calm Calm - N/A   Clear